Regional Weather Roundup
Issued by NWS

Home | Current Version | Previous Version | Graphics & Text | Print | Product List | Glossary On
Versions: 1 2 3 4 5 6 7 8 9 10 11 12 13 14 15 16 17 18 19 20 21 22 23 24 25 26 27 28 29 30 31 32 33 34 35 36 37 38 39 40 41 42 43 44 45 46 47 48 49 50
000
ASUS43 KIND 241559
RWRIN

WEATHER ROUNDUP FOR INDIANA
NATIONAL WEATHER SERVICE INDIANAPOLIS IN
1200 PM EDT THU APR 24 2014

NOTE: "FAIR" INDICATES FEW OR NO CLOUDS BELOW 12,000 FEET WITH NO
SIGNIFICANT WEATHER AND/OR OBSTRUCTIONS TO VISIBILITY.

* - STATION DOES NOT REPORT WEATHER SUCH AS PRECIPITATION OR FOG.

+ - STATION NOT QUALITY CONTROLLED BY THE NATIONAL WEATHER SERVICE.
    USE DATA WITH CAUTION...ESPECIALLY DEWPOINT AND RELATIVE
    HUMIDITY OBSERVATIONS.

INZ001>003-010>013-019-020-241700-
NORTHWEST INDIANA

CITY           SKY/WX    TMP DP  RH WIND       PRES   REMARKS
GARY /AIRPORT/ CLOUDY    59  34  38 SE21G36   29.95F
VALPARAISO     PTSUNNY   58  29  33 SE17G29   29.98F

$$

LMZ046-743>745-241700-
SOUTHERN LAKE MICHIGAN

STATION/POSITION TIME  TEMP WIND        PRES
                       AIR  DIR/SP/G
                 (UTC) (F)  (DEG/KT/KT) (MB)
MICHIGAN CITY    1500   54  130/ 20/ 27   N/A

$$

INZ004-005-014>016-021>024-241700-
NORTH CENTRAL INDIANA

CITY           SKY/WX    TMP DP  RH WIND       PRES   REMARKS
ELKHART        MOSUNNY   57  27  30 SE17G25   30.04F
GOSHEN         PTSUNNY   57  25  29 SE21G31   30.05F
SOUTH BEND     PTSUNNY   56  28  34 SE18G32   30.03F

$$

INZ006>009-017-018-025>027-241700-
NORTHEAST INDIANA

CITY           SKY/WX    TMP DP  RH WIND       PRES   REMARKS
ANGOLA *+      SUNNY     52  28  40 SE12      30.09F
FORT WAYNE     PTSUNNY   56  24  29 SE17      30.08F

$$

INZ028-029-035-036-043>045-051>053-241700-
WEST CENTRAL INDIANA

CITY           SKY/WX    TMP DP  RH WIND       PRES   REMARKS
GREENCASTLE +  MOSUNNY   59  37  44 SE15      29.99F
LAFAYETTE      MOSUNNY   59  32  36 SE18G29   29.97F
TERRE HAUTE    MOSUNNY   62  38  40 SE16      29.96F

$$

INZ030>032-037>040-046>048-054>057-064-065-241700-
CENTRAL INDIANA

CITY           SKY/WX    TMP DP  RH WIND       PRES   REMARKS
ANDERSON       SUNNY     55  21  26 SE17G29   30.06F
INDIANAPOLIS   PTSUNNY   57  33  40 SE17      30.00F
-EAGLE CREEK   SUNNY     58  32  37 SE15      30.01F
KOKOMO *+      PTSUNNY   57  30  35 SE22      30.02F
MT COMFORT *+  MOSUNNY   59  32  36 SE16G24   30.03F
SHELBYVILLE    MOSUNNY   61  29  29 SE20G28   30.03F

$$

INZ033-034-041-042-049-050-058-059-241700-
EAST CENTRAL INDIANA

CITY           SKY/WX    TMP DP  RH WIND       PRES   REMARKS
MUNCIE         MOSUNNY   55  21  26 SE15G26   30.05F

$$

INZ060-061-067>069-081>083-085>088-241700-
SOUTHWEST INDIANA

CITY           SKY/WX    TMP DP  RH WIND       PRES   REMARKS
EVANSVILLE     SUNNY     65  37  35 SE9       29.95F
HUNTINGBURG *+ MOSUNNY   63  41  45 SE14      29.97F

$$

INZ062-063-066-070>080-084-089>092-241700-
SOUTH CENTRAL AND SOUTHEAST INDIANA

CITY           SKY/WX    TMP DP  RH WIND       PRES   REMARKS
BLOOMINGTON    MOSUNNY   61  35  37 SE14      29.99F

$$




USA.gov is the U.S. government's official web portal to all federal, state and local government web resources and services.